Tracking 19832 objects as of 25-Aug-2019
HD Live streaming from Space Station
objects crossing your sky now

NUSAT 1 DEB

Track NUSAT 1 DEB now!
10-day predictions


NORAD ID: 43427
Int'l Code: 2016-033E
Perigee: 497.5 km
Apogee: 789.6 km
Inclination: 97.5 °
Period: 97.4 minutes
Semi major axis: 7014 km
RCS: Unknown
Launch date: May 30, 2016
Source: Argentina (ARGN)
Launch site: Taiyaun Space Center, China (TSC)

Note: This is SATELLITE DEBRIS
aabbcc
Your satellite tracking list
Your tracking list is empty




NASA's NSSDC Master Catalog

Two Line Element Set (TLE):
1 43427U 16033E   19237.48284848  .00000659  00000-0  70354-4 0  9994
2 43427  97.4605 243.9713 0208175 276.2185  81.5350 14.77749972163623
Source of the keplerian elements: AFSPC